WMT8642 LROP-GCTS

Flight info

Callsign WMT8642
Flight time 5h 48m
Altitude 34000
Route POLUN DCT ANASA DCT KATTI/N0446F330 DCT ESINO DCT ABIDU DCT GOKMI/N0457F350 DCT SUPUX DCT KUPIM DCT SUXER DCT RIPAL DCT MORSS DCT MHN DCT CDP DCT LULAK DCT EDULI DCT OKITI DCT IBEBA DCT BAVER DCT GERVU DCT ALT DCT RESTU DCT TOSGA DCT ROLAS DCT UNTOS DCT RIXUR DCT MGA DCT BRIKE DCT VJF L82 RUNAX UL82 IBALU UN857 TERTO
Aircraft A21N/M-SDE1E2E3FGIJ1J4RWXY/LB1

Departure

Time 2026-04-30 15:07
Airport Bucharest Henri Coandă International Airport (LROP)

Arrival

Time 2026-04-30 20:55
Airport Tenerife Sur Airport (GCTS)
Time Latitude Longitude Altitude Speed Heading
2026-04-30 14:01 44.57006 26.07963 322 ft 0 kts 354°
2026-04-30 14:10 44.57005 26.07963 326 ft 0 kts 354°
2026-04-30 14:20 44.57004 26.07963 326 ft 0 kts 354°
2026-04-30 14:29 44.57003 26.07963 326 ft 0 kts 354°
2026-04-30 14:40 44.57002 26.07963 326 ft 0 kts 354°
2026-04-30 14:52 44.56987 26.07966 321 ft 4 kts 354°
2026-04-30 14:52 44.56961 26.07970 323 ft 4 kts 354°
2026-04-30 14:53 44.56925 26.07944 322 ft 2 kts 84°
2026-04-30 14:53 44.56923 26.07913 322 ft 2 kts 84°
2026-04-30 14:54 44.56923 26.07910 326 ft 1 kts 84°
2026-04-30 14:59 44.56923 26.07920 326 ft 3 kts 84°
2026-04-30 15:00 44.56935 26.08071 325 ft 6 kts 84°
2026-04-30 15:00 44.56946 26.08208 326 ft 8 kts 83°
2026-04-30 15:01 44.56989 26.08360 326 ft 10 kts 28°
2026-04-30 15:01 44.57032 26.08378 326 ft 10 kts 355°
2026-04-30 15:01 44.57211 26.08369 326 ft 12 kts 27°
2026-04-30 15:02 44.57246 26.08473 325 ft 13 kts 44°
2026-04-30 15:02 44.57333 26.08486 326 ft 13 kts 350°
2026-04-30 15:03 44.57517 26.08462 326 ft 0 kts 354°
2026-04-30 15:04 44.57543 26.08458 325 ft 5 kts 354°
2026-04-30 15:04 44.57671 26.08527 326 ft 0 kts 79°
2026-04-30 15:06 44.57704 26.08949 325 ft 74 kts 83°
2026-04-30 15:06 44.57901 26.11478 490 ft 170 kts 82°
2026-04-30 15:07 44.58067 26.14758 2035 ft 175 kts 79°
2026-04-30 15:07 44.58363 26.18490 2750 ft 215 kts 85°
2026-04-30 15:08 44.57319 26.21905 3616 ft 250 kts 133°
2026-04-30 15:08 44.52159 26.22348 5883 ft 278 kts 213°
2026-04-30 15:09 44.50040 26.17867 7205 ft 286 kts 254°
2026-04-30 15:09 44.48982 26.12507 8664 ft 287 kts 256°
2026-04-30 15:10 44.48001 26.07064 10190 ft 286 kts 256°
2026-04-30 15:11 44.46180 25.96214 12907 ft 286 kts 256°
2026-04-30 15:11 44.45713 25.90522 13618 ft 311 kts 266°
2026-04-30 15:12 44.45472 25.80844 14640 ft 343 kts 266°
2026-04-30 15:13 44.45287 25.74234 15986 ft 340 kts 266°
2026-04-30 15:14 44.44866 25.60921 18484 ft 344 kts 266°
2026-04-30 15:14 44.44545 25.50876 20106 ft 345 kts 265°
2026-04-30 15:16 44.43993 25.34163 22821 ft 344 kts 264°
2026-04-30 15:17 44.43536 25.20772 24585 ft 345 kts 263°
2026-04-30 15:18 44.42927 25.03827 26222 ft 353 kts 264°
2026-04-30 15:19 44.42544 24.93475 27128 ft 358 kts 264°
2026-04-30 17:39 39.84388 4.12355 34051 ft 419 kts 255°
2026-04-30 17:42 39.76694 3.75828 34020 ft 416 kts 255°
2026-04-30 17:43 39.72840 3.57826 34057 ft 414 kts 255°
2026-04-30 17:44 39.67772 3.36402 34057 ft 415 kts 250°
2026-04-30 17:47 39.58784 3.04791 34055 ft 415 kts 250°
2026-04-30 17:48 39.51746 2.80282 34055 ft 415 kts 249°
2026-04-30 17:50 39.43631 2.52258 34052 ft 415 kts 249°
2026-04-30 17:52 39.37543 2.31361 34049 ft 414 kts 249°
2026-04-30 17:54 39.28303 2.00069 34051 ft 414 kts 248°
2026-04-30 17:56 39.20027 1.72310 34049 ft 414 kts 248°
2026-04-30 17:58 39.13758 1.51533 34057 ft 414 kts 248°
2026-04-30 18:00 39.05397 1.24013 34051 ft 412 kts 248°
2026-04-30 18:01 39.00148 1.06910 34053 ft 410 kts 248°
2026-04-30 18:02 38.93872 0.86559 34052 ft 407 kts 247°
2026-04-30 18:04 38.87611 0.66398 34055 ft 403 kts 248°
2026-04-30 18:06 38.78024 0.40676 34044 ft 399 kts 237°
2026-04-30 18:08 38.67312 0.20037 34045 ft 397 kts 237°
2026-04-30 18:10 38.55088 -0.03413 34047 ft 396 kts 237°
2026-04-30 18:11 38.44346 -0.23841 34046 ft 396 kts 236°
2026-04-30 18:13 38.36668 -0.38446 34050 ft 397 kts 236°
2026-04-30 18:14 38.28933 -0.53002 34051 ft 398 kts 235°
2026-04-30 18:15 38.21441 -0.71906 34053 ft 401 kts 243°
2026-04-30 18:16 38.17162 -0.83730 34046 ft 402 kts 243°
2026-04-30 18:17 38.14812 -0.90184 34044 ft 402 kts 243°
2026-04-30 18:18 38.11306 -0.99827 34043 ft 401 kts 243°
2026-04-30 18:18 38.08943 -1.06271 34054 ft 402 kts 243°
2026-04-30 18:19 38.06600 -1.12709 34053 ft 402 kts 243°
2026-04-30 18:19 38.04257 -1.19121 34054 ft 402 kts 243°
2026-04-30 18:20 38.01889 -1.25559 34052 ft 402 kts 242°
2026-04-30 18:20 37.99514 -1.31993 34053 ft 403 kts 242°
2026-04-30 18:21 37.97144 -1.38456 34054 ft 403 kts 242°
2026-04-30 18:21 37.94781 -1.44858 34049 ft 403 kts 242°
2026-04-30 18:22 37.92377 -1.51334 34050 ft 404 kts 242°
2026-04-30 18:22 37.88817 -1.60937 34055 ft 403 kts 242°
2026-04-30 18:23 37.86416 -1.67378 34059 ft 403 kts 242°
2026-04-30 18:23 37.84009 -1.73804 34071 ft 404 kts 242°
2026-04-30 18:24 37.80389 -1.83459 34072 ft 406 kts 242°
2026-04-30 18:25 37.77991 -1.89885 34074 ft 406 kts 242°
2026-04-30 18:25 37.74343 -1.99567 34081 ft 407 kts 242°
2026-04-30 18:26 37.70667 -2.09254 34103 ft 408 kts 242°
2026-04-30 18:27 37.66999 -2.18942 34103 ft 408 kts 242°
2026-04-30 18:28 37.63329 -2.28662 34106 ft 409 kts 241°
2026-04-30 18:28 37.59617 -2.38371 34106 ft 409 kts 241°
2026-04-30 18:29 37.54665 -2.51306 34099 ft 410 kts 241°
2026-04-30 18:30 37.49722 -2.64200 34099 ft 410 kts 241°
2026-04-30 18:31 37.45983 -2.73898 34092 ft 409 kts 241°
2026-04-30 18:32 37.42277 -2.83530 34100 ft 408 kts 240°
2026-04-30 18:33 37.38553 -2.93164 34096 ft 407 kts 240°
2026-04-30 18:33 37.34816 -3.02733 34099 ft 406 kts 240°
2026-04-30 18:34 37.31084 -3.12305 34105 ft 406 kts 240°
2026-04-30 18:35 37.28614 -3.18644 34105 ft 406 kts 240°
2026-04-30 18:35 37.26114 -3.25010 34108 ft 406 kts 240°
2026-04-30 18:36 37.22383 -3.34510 34102 ft 406 kts 240°
2026-04-30 18:37 37.18628 -3.44040 34098 ft 406 kts 240°
2026-04-30 18:37 37.16121 -3.50401 34093 ft 406 kts 240°
2026-04-30 18:38 37.13620 -3.56701 34085 ft 405 kts 240°
2026-04-30 18:38 37.11099 -3.63041 34083 ft 405 kts 240°
2026-04-30 18:39 37.08593 -3.69336 34085 ft 405 kts 240°
2026-04-30 18:39 37.06078 -3.75660 34081 ft 405 kts 240°
2026-04-30 18:40 37.03560 -3.81980 34078 ft 404 kts 240°
2026-04-30 18:40 37.01061 -3.88242 34080 ft 403 kts 240°
2026-04-30 18:41 36.98546 -3.94513 34070 ft 403 kts 240°
2026-04-30 18:41 36.96033 -4.00777 34065 ft 402 kts 239°
2026-04-30 18:42 36.93508 -4.07048 34060 ft 402 kts 240°
2026-04-30 18:42 36.89741 -4.16380 34044 ft 402 kts 239°
2026-04-30 18:45 36.77165 -4.51520 34025 ft 407 kts 246°
2026-04-30 18:46 36.75226 -4.58156 34032 ft 407 kts 246°
2026-04-30 18:46 36.73296 -4.64787 34031 ft 407 kts 246°
2026-04-30 18:47 36.71352 -4.71371 34027 ft 407 kts 246°
2026-04-30 18:47 36.69396 -4.78018 34026 ft 408 kts 246°
2026-04-30 18:48 36.67433 -4.84677 34029 ft 409 kts 246°
2026-04-30 18:48 36.65452 -4.91341 34042 ft 411 kts 246°
2026-04-30 18:49 36.63486 -4.97983 34037 ft 412 kts 247°
2026-04-30 18:49 36.61494 -5.04692 34067 ft 413 kts 247°
2026-04-30 18:50 36.59495 -5.11425 34060 ft 414 kts 247°
2026-04-30 18:50 36.57492 -5.18157 34055 ft 415 kts 247°
2026-04-30 18:51 36.55492 -5.24852 34060 ft 415 kts 247°
2026-04-30 18:51 36.53468 -5.31600 34057 ft 415 kts 248°
2026-04-30 18:52 36.51437 -5.38330 34066 ft 416 kts 248°
2026-04-30 18:52 36.48972 -5.44815 34065 ft 415 kts 238°
2026-04-30 18:53 36.46036 -5.50993 34059 ft 415 kts 238°
2026-04-30 18:53 36.43097 -5.57188 34061 ft 416 kts 238°
2026-04-30 18:54 36.40163 -5.63385 34068 ft 416 kts 238°
2026-04-30 18:54 36.37256 -5.69544 34072 ft 416 kts 238°
2026-04-30 18:55 36.34307 -5.75754 34074 ft 417 kts 238°
2026-04-30 18:55 36.30368 -5.84008 34076 ft 417 kts 238°
2026-04-30 18:56 36.25925 -5.93313 34081 ft 418 kts 238°
2026-04-30 18:57 36.21060 -6.02204 34082 ft 417 kts 232°
2026-04-30 18:57 36.17547 -6.07927 34089 ft 417 kts 232°
2026-04-30 18:58 36.11758 -6.15884 34093 ft 416 kts 223°
2026-04-30 18:59 36.05491 -6.23336 34282 ft 417 kts 224°
2026-04-30 19:00 35.99250 -6.30831 34809 ft 417 kts 224°
2026-04-30 19:00 35.97170 -6.33336 34952 ft 418 kts 224°
2026-04-30 19:00 35.93019 -6.38320 35127 ft 420 kts 224°
2026-04-30 19:01 35.88812 -6.43340 35111 ft 420 kts 225°
2026-04-30 19:02 35.82522 -6.50859 35094 ft 419 kts 224°
2026-04-30 19:03 35.74155 -6.60842 35097 ft 419 kts 225°
2026-04-30 19:04 35.65785 -6.70771 35102 ft 418 kts 225°
2026-04-30 19:05 35.57380 -6.80737 35100 ft 419 kts 225°
2026-04-30 19:06 35.48967 -6.90663 35112 ft 421 kts 226°
2026-04-30 19:06 35.42573 -6.98175 35108 ft 424 kts 226°
2026-04-30 19:07 35.36196 -7.05651 35106 ft 426 kts 227°
2026-04-30 19:08 35.27611 -7.15714 35121 ft 428 kts 228°
2026-04-30 19:09 35.21160 -7.23276 35113 ft 429 kts 229°
2026-04-30 19:09 35.16823 -7.28330 35110 ft 430 kts 229°
2026-04-30 19:10 35.08157 -7.38412 35118 ft 432 kts 230°
2026-04-30 19:11 35.01612 -7.46004 35118 ft 432 kts 230°
2026-04-30 19:12 34.97243 -7.51061 35117 ft 433 kts 230°
2026-04-30 19:12 34.92890 -7.56094 35119 ft 433 kts 230°
2026-04-30 19:13 34.84104 -7.66195 35116 ft 433 kts 230°
2026-04-30 19:14 34.79738 -7.71239 35123 ft 432 kts 230°
2026-04-30 19:14 34.75368 -7.76267 35123 ft 431 kts 230°
2026-04-30 19:15 34.71031 -7.81244 35121 ft 431 kts 230°
2026-04-30 19:15 34.64502 -7.88720 35128 ft 429 kts 230°
2026-04-30 19:16 34.60152 -7.93694 35119 ft 429 kts 230°
2026-04-30 19:17 34.53642 -8.01107 35119 ft 428 kts 230°
2026-04-30 19:17 34.47119 -8.08524 35125 ft 428 kts 230°
2026-04-30 19:18 34.40635 -8.15904 35125 ft 427 kts 229°
2026-04-30 19:19 34.36290 -8.20825 35126 ft 427 kts 229°
2026-04-30 19:19 34.29807 -8.28162 35128 ft 426 kts 229°
2026-04-30 19:20 34.25460 -8.33072 35132 ft 426 kts 229°
2026-04-30 19:21 34.18952 -8.40406 35132 ft 426 kts 229°
2026-04-30 19:22 34.10298 -8.50137 35130 ft 425 kts 229°
2026-04-30 19:23 33.97311 -8.64682 35137 ft 424 kts 229°
2026-04-30 19:24 33.90854 -8.71882 35142 ft 423 kts 229°
2026-04-30 19:25 33.80039 -8.83912 35145 ft 422 kts 229°
2026-04-30 19:26 33.71411 -8.93502 35132 ft 422 kts 229°
2026-04-30 19:27 33.64930 -9.00672 35135 ft 422 kts 229°
2026-04-30 19:28 33.58418 -9.07856 35106 ft 422 kts 230°
2026-04-30 19:29 33.49781 -9.17380 35134 ft 421 kts 230°
2026-04-30 19:30 33.41168 -9.26835 35136 ft 420 kts 230°
2026-04-30 19:31 33.32545 -9.36291 35136 ft 419 kts 230°
2026-04-30 19:31 33.26113 -9.43320 35138 ft 419 kts 230°
2026-04-30 19:32 33.21800 -9.48026 35130 ft 419 kts 230°
2026-04-30 19:32 33.17488 -9.52716 35127 ft 418 kts 230°
2026-04-30 19:33 33.13911 -9.56613 35136 ft 418 kts 230°
2026-04-30 19:33 33.09621 -9.61273 35134 ft 418 kts 230°
2026-04-30 19:34 33.05318 -9.65941 35137 ft 418 kts 230°
2026-04-30 19:35 32.98857 -9.72939 35139 ft 417 kts 230°
2026-04-30 19:35 32.94577 -9.77569 35140 ft 417 kts 230°
2026-04-30 19:36 32.90268 -9.82223 35137 ft 417 kts 230°
2026-04-30 19:36 32.83831 -9.89158 35141 ft 417 kts 230°
2026-04-30 19:37 32.79530 -9.93791 35144 ft 416 kts 230°
2026-04-30 19:37 32.75227 -9.98403 35144 ft 416 kts 230°
2026-04-30 19:38 32.70952 -10.02998 35144 ft 416 kts 230°
2026-04-30 19:38 32.66656 -10.07613 35141 ft 415 kts 230°
2026-04-30 19:39 32.62354 -10.12218 35144 ft 415 kts 230°
2026-04-30 19:39 32.58069 -10.16800 35143 ft 415 kts 230°
2026-04-30 19:40 32.53801 -10.21350 35151 ft 414 kts 230°
2026-04-30 19:40 32.49504 -10.25926 35148 ft 414 kts 230°
2026-04-30 19:41 32.45237 -10.30461 35155 ft 414 kts 230°
2026-04-30 19:41 32.40945 -10.35026 35150 ft 414 kts 230°
2026-04-30 19:42 32.36676 -10.39572 35147 ft 414 kts 230°
2026-04-30 19:42 32.32383 -10.44131 35146 ft 413 kts 229°
2026-04-30 19:43 32.28087 -10.48672 35151 ft 414 kts 229°
2026-04-30 19:44 32.21674 -10.55454 35144 ft 414 kts 229°
2026-04-30 19:44 32.17380 -10.59991 35148 ft 414 kts 229°
2026-04-30 19:45 32.13072 -10.64533 35149 ft 414 kts 229°
2026-04-30 19:45 32.08792 -10.69039 35148 ft 415 kts 229°
2026-04-30 19:46 32.04472 -10.73580 35149 ft 415 kts 229°
2026-04-30 19:46 32.00165 -10.78104 35150 ft 414 kts 229°
2026-04-30 19:47 31.95881 -10.82595 35146 ft 415 kts 229°
2026-04-30 19:47 31.91560 -10.87112 35147 ft 415 kts 229°
2026-04-30 19:48 31.87243 -10.91626 35152 ft 415 kts 229°
2026-04-30 19:48 31.82919 -10.96150 35150 ft 415 kts 229°
2026-04-30 19:49 31.78619 -11.00637 35153 ft 415 kts 229°
2026-04-30 19:49 31.72135 -11.07385 35152 ft 415 kts 229°
2026-04-30 19:50 31.67799 -11.11895 35157 ft 415 kts 229°
2026-04-30 19:50 31.63494 -11.16363 35158 ft 415 kts 229°
2026-04-30 19:51 31.59153 -11.20861 35158 ft 415 kts 229°
2026-04-30 19:51 31.54838 -11.25339 35158 ft 415 kts 229°
2026-04-30 19:52 31.50496 -11.29833 35157 ft 415 kts 229°
2026-04-30 19:52 31.46189 -11.34285 35160 ft 415 kts 229°
2026-04-30 19:53 31.41845 -11.38767 35159 ft 415 kts 228°
2026-04-30 19:53 31.37495 -11.43245 35156 ft 415 kts 228°
2026-04-30 19:54 31.33169 -11.47696 35161 ft 415 kts 228°
2026-04-30 19:54 31.28851 -11.52135 35160 ft 415 kts 228°
2026-04-30 19:55 31.24511 -11.56587 35157 ft 415 kts 228°
2026-04-30 19:55 31.20173 -11.61037 35161 ft 414 kts 228°
2026-04-30 19:56 31.15825 -11.65481 35161 ft 414 kts 228°
2026-04-30 19:56 31.11517 -11.69887 35157 ft 414 kts 228°
2026-04-30 19:57 31.07162 -11.74341 35162 ft 414 kts 228°
2026-04-30 19:57 31.02834 -11.78758 35163 ft 414 kts 227°
2026-04-30 19:58 30.98519 -11.83154 35159 ft 413 kts 227°
2026-04-30 19:58 30.94188 -11.87558 35162 ft 413 kts 227°
2026-04-30 19:59 30.89844 -11.91975 35166 ft 413 kts 227°
2026-04-30 20:00 30.83326 -11.98588 35163 ft 413 kts 227°
2026-04-30 20:00 30.78999 -12.02965 35162 ft 413 kts 227°
2026-04-30 20:01 30.72483 -12.09557 35163 ft 413 kts 227°
2026-04-30 20:01 30.68171 -12.13915 35163 ft 413 kts 227°
2026-04-30 20:02 30.61649 -12.20492 35164 ft 413 kts 227°
2026-04-30 20:03 30.55164 -12.27018 35164 ft 412 kts 227°
2026-04-30 20:03 30.50810 -12.31391 35163 ft 412 kts 227°
2026-04-30 20:04 30.46465 -12.35747 35169 ft 412 kts 227°
2026-04-30 20:05 30.39982 -12.42254 35168 ft 412 kts 227°
2026-04-30 20:05 30.33458 -12.48781 35166 ft 412 kts 227°
2026-04-30 20:06 30.29109 -12.53124 35168 ft 412 kts 227°
2026-04-30 20:06 30.24768 -12.57454 35170 ft 412 kts 227°
2026-04-30 20:07 30.20451 -12.61755 35169 ft 412 kts 227°
2026-04-30 20:08 30.13933 -12.68241 35175 ft 411 kts 226°
2026-04-30 20:08 30.09565 -12.72539 35172 ft 412 kts 225°
2026-04-30 20:09 30.05130 -12.76719 35169 ft 412 kts 225°
2026-04-30 20:09 29.98451 -12.82997 35169 ft 412 kts 225°
2026-04-30 20:10 29.91800 -12.89231 35172 ft 412 kts 225°
2026-04-30 20:11 29.85126 -12.95494 35173 ft 412 kts 225°
2026-04-30 20:11 29.80671 -12.99672 35172 ft 412 kts 225°
2026-04-30 20:12 29.73987 -13.05917 35171 ft 412 kts 225°
2026-04-30 20:13 29.70277 -13.09381 35169 ft 412 kts 225°
2026-04-30 20:13 29.65087 -13.14214 35169 ft 412 kts 225°
2026-04-30 20:14 29.61384 -13.17669 35163 ft 412 kts 225°
2026-04-30 20:14 29.56918 -13.21824 35176 ft 412 kts 225°
2026-04-30 20:15 29.52457 -13.25969 35164 ft 412 kts 225°
2026-04-30 20:15 29.47995 -13.30111 35166 ft 412 kts 225°
2026-04-30 20:16 29.43533 -13.34247 35170 ft 412 kts 225°
2026-04-30 20:16 29.39095 -13.38354 35169 ft 412 kts 225°
2026-04-30 20:17 29.34623 -13.42490 35167 ft 411 kts 225°
2026-04-30 20:17 29.30166 -13.46609 35173 ft 411 kts 224°
2026-04-30 20:18 29.25735 -13.50697 35171 ft 411 kts 224°
2026-04-30 20:18 29.21239 -13.54841 35159 ft 411 kts 224°
2026-04-30 20:19 29.16800 -13.58927 35152 ft 411 kts 224°
2026-04-30 20:19 29.12339 -13.63030 35149 ft 411 kts 224°
2026-04-30 20:20 29.07861 -13.67143 35145 ft 411 kts 224°
2026-04-30 20:20 29.03425 -13.71213 35141 ft 412 kts 224°
2026-04-30 20:21 28.98943 -13.75316 35148 ft 412 kts 224°
2026-04-30 20:21 28.94483 -13.79396 35149 ft 412 kts 224°
2026-04-30 20:22 28.90007 -13.83490 35152 ft 412 kts 224°
2026-04-30 20:22 28.85526 -13.87582 35161 ft 411 kts 224°
2026-04-30 20:23 28.81078 -13.91639 35161 ft 411 kts 224°
2026-04-30 20:23 28.76595 -13.95723 35165 ft 411 kts 224°
2026-04-30 20:24 28.72141 -13.99775 35158 ft 411 kts 224°
2026-04-30 20:24 28.67667 -14.03844 35163 ft 411 kts 224°
2026-04-30 20:25 28.60956 -14.09939 35156 ft 411 kts 224°
2026-04-30 20:26 28.54270 -14.15998 35156 ft 410 kts 224°
2026-04-30 20:26 28.47593 -14.22035 35161 ft 408 kts 224°
2026-04-30 20:27 28.43640 -14.26575 35160 ft 396 kts 242°
2026-04-30 20:27 28.41897 -14.32324 35164 ft 386 kts 262°
2026-04-30 20:28 28.41132 -14.38291 34668 ft 377 kts 263°
2026-04-30 20:28 28.40332 -14.44137 33885 ft 369 kts 262°
2026-04-30 20:29 28.39523 -14.49797 32948 ft 360 kts 262°
2026-04-30 20:30 28.38342 -14.58080 31582 ft 348 kts 261°
2026-04-30 20:30 28.37199 -14.66119 30282 ft 337 kts 260°
2026-04-30 20:31 28.36063 -14.73884 28693 ft 330 kts 261°
2026-04-30 20:32 28.34933 -14.81774 27569 ft 335 kts 261°
2026-04-30 20:32 28.34188 -14.86919 26726 ft 328 kts 261°
2026-04-30 20:33 28.33818 -14.89464 26297 ft 326 kts 261°
2026-04-30 20:33 28.33078 -14.94505 25481 ft 320 kts 261°
2026-04-30 20:33 28.32708 -14.96958 25088 ft 317 kts 261°
2026-04-30 20:34 28.31980 -15.01981 24096 ft 328 kts 261°
2026-04-30 20:34 28.31241 -15.07050 23308 ft 322 kts 261°
2026-04-30 20:35 28.30875 -15.09548 22866 ft 319 kts 261°
2026-04-30 20:35 28.30507 -15.12025 22428 ft 316 kts 261°
2026-04-30 20:35 28.29784 -15.16921 21588 ft 311 kts 261°
2026-04-30 20:36 28.29419 -15.19331 21173 ft 309 kts 261°
2026-04-30 20:36 28.29054 -15.21690 20771 ft 307 kts 261°
2026-04-30 20:36 28.28337 -15.26419 19993 ft 301 kts 261°
2026-04-30 20:37 28.27988 -15.28751 19615 ft 299 kts 261°
2026-04-30 20:37 28.27646 -15.31071 19252 ft 297 kts 261°
2026-04-30 20:37 28.27302 -15.33377 18872 ft 295 kts 261°
2026-04-30 20:37 28.26959 -15.35659 18508 ft 293 kts 261°
2026-04-30 20:38 28.26625 -15.37924 18125 ft 290 kts 262°
2026-04-30 20:38 28.26296 -15.40210 17739 ft 287 kts 261°
2026-04-30 20:38 28.25975 -15.42400 17388 ft 284 kts 261°
2026-04-30 20:39 28.25316 -15.46813 16694 ft 280 kts 261°
2026-04-30 20:39 28.24996 -15.48981 16375 ft 278 kts 261°
2026-04-30 20:39 28.24677 -15.51112 16071 ft 276 kts 261°
2026-04-30 20:40 28.24024 -15.55389 15454 ft 273 kts 260°
2026-04-30 20:40 28.23706 -15.57515 15124 ft 273 kts 260°
2026-04-30 20:40 28.23388 -15.59642 14774 ft 274 kts 260°
2026-04-30 20:41 28.22745 -15.63899 14100 ft 274 kts 259°
2026-04-30 20:41 28.22412 -15.66034 13734 ft 275 kts 259°
2026-04-30 20:41 28.22090 -15.68151 13373 ft 275 kts 259°
2026-04-30 20:41 28.21763 -15.70291 13027 ft 274 kts 259°
2026-04-30 20:42 28.21437 -15.72415 12697 ft 273 kts 259°
2026-04-30 20:42 28.21107 -15.74537 12363 ft 272 kts 259°
2026-04-30 20:42 28.20458 -15.78761 11688 ft 271 kts 259°
2026-04-30 20:43 28.20135 -15.80870 11348 ft 271 kts 259°
2026-04-30 20:43 28.19811 -15.82972 11013 ft 270 kts 259°
2026-04-30 20:43 28.19490 -15.85082 10676 ft 270 kts 259°
2026-04-30 20:44 28.18850 -15.89260 10012 ft 271 kts 259°
2026-04-30 20:44 28.18531 -15.91374 9634 ft 271 kts 259°
2026-04-30 20:44 28.17882 -15.95590 8906 ft 271 kts 259°
2026-04-30 20:45 28.17227 -15.99799 8195 ft 271 kts 259°
2026-04-30 20:45 28.16899 -16.01909 7856 ft 271 kts 259°
2026-04-30 20:45 28.16578 -16.03987 7526 ft 271 kts 259°
2026-04-30 20:46 28.15597 -16.10321 6430 ft 272 kts 259°
2026-04-30 20:46 28.15268 -16.12434 6006 ft 271 kts 259°
2026-04-30 20:47 28.14615 -16.16623 5272 ft 271 kts 260°
2026-04-30 20:47 28.14290 -16.18722 4905 ft 269 kts 260°
2026-04-30 20:48 28.13641 -16.22906 4097 ft 270 kts 261°
2026-04-30 20:48 28.13315 -16.25012 3718 ft 270 kts 261°
2026-04-30 20:48 28.12986 -16.27096 3344 ft 267 kts 261°
2026-04-30 20:48 28.12664 -16.29114 3129 ft 258 kts 261°
2026-04-30 20:49 28.12346 -16.31069 3057 ft 243 kts 260°
2026-04-30 20:49 28.12046 -16.32892 3112 ft 233 kts 260°
2026-04-30 20:49 28.11756 -16.34696 3118 ft 228 kts 261°
2026-04-30 20:50 28.11100 -16.37905 2952 ft 188 kts 253°
2026-04-30 20:50 28.10689 -16.39223 2862 ft 167 kts 250°
2026-04-30 20:50 28.10287 -16.40405 2589 ft 152 kts 249°
2026-04-30 20:50 28.09918 -16.41476 2494 ft 144 kts 249°
2026-04-30 20:51 28.09551 -16.42537 2504 ft 144 kts 249°
2026-04-30 20:51 28.08941 -16.44298 2338 ft 144 kts 249°
2026-04-30 20:51 28.08575 -16.45356 2155 ft 144 kts 249°
2026-04-30 20:52 28.08212 -16.46402 1968 ft 142 kts 249°
2026-04-30 20:52 28.07852 -16.47442 1776 ft 141 kts 249°
2026-04-30 20:52 28.07147 -16.49477 1400 ft 139 kts 249°
2026-04-30 20:53 28.06787 -16.50517 1209 ft 138 kts 249°
2026-04-30 20:53 28.06439 -16.51520 1033 ft 135 kts 249°
2026-04-30 20:53 28.06096 -16.52511 857 ft 134 kts 249°
2026-04-30 20:54 28.05418 -16.54451 503 ft 132 kts 249°
2026-04-30 20:54 28.05081 -16.55417 331 ft 132 kts 249°
2026-04-30 20:54 28.04757 -16.56370 236 ft 122 kts 249°
2026-04-30 20:55 28.04321 -16.57644 209 ft 33 kts 255°
2026-04-30 20:55 28.04301 -16.57835 207 ft 22 kts 267°
2026-04-30 20:55 28.04300 -16.57868 207 ft 0 kts 267°
2026-04-30 20:56 28.04299 -16.57882 207 ft 3 kts 267°
2026-04-30 20:56 28.04298 -16.57914 207 ft 5 kts 267°
2026-04-30 20:56 28.04292 -16.58035 216 ft 10 kts 266°
2026-04-30 20:57 28.04317 -16.58108 213 ft 12 kts 356°
2026-04-30 20:57 28.04367 -16.58046 208 ft 12 kts 69°
2026-04-30 20:57 28.04393 -16.57960 216 ft 11 kts 69°
2026-04-30 20:58 28.04464 -16.57821 210 ft 7 kts
2026-04-30 20:58 28.04475 -16.57830 210 ft 2 kts 311°
2026-04-30 20:58 28.04490 -16.57845 211 ft 3 kts 326°
2026-04-30 20:58 28.04495 -16.57849 212 ft 0 kts 326°
2026-04-30 20:59 28.04510 -16.57858 214 ft 0 kts 338°